Terug naar catalogus

QIANFAN-174

ActiefCommunicatiePO
NORAD 69391·PAYLOAD·🇨🇳 China

Gelanceerd Jun 4, 2026 vanaf Taiyuan Satellite Launch Center

Loading…

Volgende Passages (komende 24 uur)

TLE

VersSource: Space-Track

Epoch: Sep 14, 2026, 20:52 UTC

1 69391U 26124K   26257.86970105  .00000130  00000-0  18315-3 0  9996
2 69391  89.0044 352.5143 0002186 110.0344 250.1043 13.51029533 14178

Volg QIANFAN-174 in realtime met AllMySat

Download on the App Store